This is the latest recevied weather packets stored in our database for station/object W0AKO. If no packets are shown the sender has not sent any weather packets the latest 10 day(s).
| Time | Temp. | Humidity | Pressure | Rain* | Wind** | Luminosity | Snow |
|---|---|---|---|---|---|---|---|
| 1778145015 | 16.67° C | 10% | 1020.2 hPa | 0 mm | - | 0 W/m² | - |
| 1778144712 | 17.78° C | 10% | 1020.6 hPa | 0 mm | - | 0 W/m² | - |
| 1778144409 | 17.78° C | 10% | 1020.3 hPa | 0 mm | - | 0 W/m² | - |
| 1778144106 | 17.22° C | 10% | 1020.3 hPa | 0 mm | - | 0 W/m² | - |
| 1778143802 | 17.22° C | 10% | 1020.3 hPa | 0 mm | - | 0 W/m² | - |
| 1778143499 | 15.56° C | 10% | 1020.3 hPa | 0 mm | - | 0 W/m² | - |
| 1778143196 | 16.11° C | 10% | 1020.2 hPa | 0 mm | - | 0 W/m² | - |
| 1778142892 | 16.67° C | 10% | 1020.2 hPa | 0 mm | - | 0 W/m² | - |
| 1778142589 | 16.67° C | 10% | 1020 hPa | 0 mm | - | 0 W/m² | - |
| 1778142284 | 17.22° C | 10% | 1019.9 hPa | 0 mm | - | 0 W/m² | - |
| 1778141976 | 17.22° C | 10% | 1020.1 hPa | 0 mm | - | 0 W/m² | - |
| 1778141672 | 17.78° C | 10% | 1020.1 hPa | 0 mm | - | 0 W/m² | - |
| 1778141369 | 17.78° C | 10% | 1020.1 hPa | 0 mm | - | 0 W/m² | - |
| 1778141065 | 17.78° C | 10% | 1020.2 hPa | 0 mm | - | 0 W/m² | - |
| 1778140761 | 17.78° C | 10% | 1019.9 hPa | 0 mm | - | 0 W/m² | - |
| 1778140457 | 17.78° C | 10% | 1020 hPa | 0 mm | - | 0 W/m² | - |
| 1778140154 | 17.78° C | 10% | 1019.9 hPa | 0 mm | - | 0 W/m² | - |
| 1778139851 | 18.33° C | 10% | 1020.2 hPa | 0 mm | - | 0 W/m² | - |
| 1778139549 | 19.44° C | 10% | 1020.2 hPa | 0 mm | - | 0 W/m² | - |
| 1778139245 | 19.44° C | 10% | 1020 hPa | 0 mm | - | 0 W/m² | - |
| 1778138942 | 18.89° C | 10% | 1020.1 hPa | 0 mm | - | 0 W/m² | - |
| 1778138639 | 19.44° C | 10% | 1020.4 hPa | 0 mm | - | 0 W/m² | - |
| 1778138337 | 19.44° C | 10% | 1020.3 hPa | 0 mm | - | 0 W/m² | - |
| 1778138034 | 19.44° C | 10% | 1020.1 hPa | 0 mm | - | 0 W/m² | - |
| 1778137729 | 19.44° C | 10% | 1020.1 hPa | 0 mm | - | 0 W/m² | - |
* Rain latest hour (hover to see other rain measurements)
** Current wind speed in m/s (hover to see current wind gust speed)